FW6569 Weather Reports


Display with metric or nautical units.
time (UTC)temp
F
wind
direction
speed
MPH
gust
MPH
rain 1hr
in
rain 24hr
in
rain mn
in
humidity
%
barometer
mb
20260502194527 56 8 6.0 13.0 0.00 0.00 0.00 42 1018.1
20260502193527 56 9 5.0 11.0 0.00 0.00 0.00 42 1018.2
20260502192528 57 273 5.0 8.0 0.00 0.00 0.00 38 1018.2
20260502191528 57 349 6.0 10.0 0.00 0.00 0.00 39 1018.3
20260502190528 56 353 4.0 9.0 0.00 0.00 0.00 43 1018.4
20260502185528 56 347 7.0 12.0 0.00 0.00 0.00 40 1018.5
20260502184528 55 12 4.0 7.0 0.00 0.00 0.00 44 1018.5
20260502183528 54 358 8.0 15.0 0.00 0.00 0.00 42 1018.6
20260502182548 56 288 5.0 11.0 0.00 0.00 0.00 39 1018.7
20260502181528 56 334 5.0 9.0 0.00 0.00 0.00 39 1018.7
20260502180528 56 327 5.0 12.0 0.00 0.00 0.00 40 1018.8
20260502163528 54 2 6.0 12.0 0.00 0.00 0.00 50 1019.3
20260502162528 54 350 6.0 9.0 0.00 0.00 0.00 49 1019.4
20260502161528 54 251 4.0 7.0 0.00 0.00 0.00 48 1019.5
20260502160528 53 7 8.0 11.0 0.00 0.00 0.00 50 1019.5
20260502151528 51 328 4.0 6.0 0.00 0.00 0.00 52 1019.5
20260502150528 49 1 4.0 7.0 0.00 0.00 0.00 51 1019.7
20260502130529 42 13 4.0 5.0 0.00 0.01 0.00 74 1019.5
20260502123549 41 15 3.0 6.0 0.00 0.01 0.00 75 1019.2
20260502122528 41 25 4.0 5.0 0.00 0.01 0.00 78 1019.1
20260502121548 41 16 2.0 3.0 0.00 0.01 0.00 82 1019.1
20260502120528 40 65 1.0 2.0 0.00 0.01 0.00 87 1019.0
20260502115549 39 0.0 0.0 0.00 0.01 0.00 92 1018.7
20260502114529 37 0.0 0.0 0.00 0.01 0.00 95 1018.7
20260502113528 36 0.0 0.0 0.00 0.01 0.00 95 1018.5
20260502112529 36 0.0 0.0 0.00 0.01 0.00 95 1018.3
20260502111528 36 0.0 0.0 0.00 0.01 0.00 95 1018.4
20260502110528 35 0.0 0.0 0.00 0.01 0.00 95 1018.2
20260502105539 36 64 1.0 3.0 0.00 0.01 0.00 95 1018.0
20260502104518 35 0.0 0.0 0.00 0.01 0.00 95 1018.0
20260502103518 35 0.0 0.0 0.00 0.01 0.00 95 1018.2
20260502102518 35 0.0 0.0 0.00 0.01 0.00 95 1018.3
20260502101518 35 0.0 0.0 0.00 0.01 0.00 95 1018.2
20260502100519 35 0.0 0.0 0.00 0.01 0.00 95 1018.3
20260502091519 36 0.0 0.0 0.00 0.01 0.00 96 1018.3
20260502090559 37 0.0 0.0 0.00 0.01 0.00 96 1018.3
20260502071519 38 0.0 0.0 0.00 0.01 0.00 96 1018.0
20260502070519 38 0.0 0.0 0.00 0.01 0.00 96 1018.1
20260502065518 38 0.0 0.0 0.00 0.01 0.00 96 1018.2
20260502064519 38 0.0 0.0 0.00 0.01 0.00 96 1018.2
20260502063519 37 0.0 0.0 0.00 0.01 0.00 95 1018.4
20260502062519 38 0.0 0.0 0.00 0.01 0.00 95 1018.4
20260502061519 38 0.0 0.0 0.00 0.01 0.00 95 1018.5
20260502060539 38 0.0 0.0 0.00 0.01 0.00 95 1018.6
20260502055519 38 0.0 0.0 0.00 0.01 0.00 95 1018.5
20260502054519 38 0.0 0.0 0.00 0.01 0.00 95 1018.4
20260502053519 38 0.0 0.0 0.00 0.01 0.00 94 1018.6
20260502052519 37 0.0 0.0 0.00 0.01 0.00 93 1018.6
20260502051519 38 0.0 0.0 0.00 0.01 0.00 93 1018.5
20260502050539 38 0.0 0.0 0.00 0.01 0.00 93 1018.5
20260502045519 39 0.0 0.0 0.00 0.01 0.00 93 1018.4
20260502044539 39 0.0 0.0 0.00 0.01 0.00 92 1018.5
20260502043519 39 0.0 0.0 0.00 0.01 0.00 92 1018.6
20260502042519 39 0.0 0.0 0.00 0.01 0.00 92 1018.7
20260502041519 40 0.0 0.0 0.00 0.01 0.00 91 1018.7
20260502040519 39 0.0 0.0 0.00 0.01 0.00 90 1018.6
20260502035519 40 0.0 0.0 0.00 0.01 0.01 90 1018.6
20260502034519 40 0.0 0.0 0.00 0.01 0.01 89 1018.6
20260502033519 40 0.0 0.0 0.00 0.01 0.01 88 1018.7
20260502032519 40 0.0 0.0 0.00 0.01 0.01 87 1018.7
20260502031519 40 0.0 0.0 0.00 0.01 0.01 86 1018.8
20260502030519 40 0.0 0.0 0.00 0.01 0.01 86 1018.8
20260502025519 41 0.0 0.0 0.00 0.01 0.01 85 1018.7
20260502024519 41 0.0 0.0 0.00 0.01 0.01 85 1018.6
20260502023519 42 0.0 0.0 0.00 0.01 0.01 84 1018.4
20260502022519 42 0.0 0.0 0.00 0.01 0.01 82 1018.2
20260502021519 42 0.0 0.0 0.00 0.01 0.01 78 1018.2
20260502020519 43 0.0 0.0 0.00 0.01 0.01 76 1018.3
20260502015519 44 0.0 0.0 0.00 0.01 0.01 75 1018.2
20260502014519 45 0.0 0.0 0.00 0.01 0.01 73 1018.3
20260502013519 45 0.0 0.0 0.00 0.01 0.01 71 1018.0
20260502012519 46 0.0 0.0 0.00 0.01 0.01 69 1017.7
20260502011519 47 311 0.0 2.0 0.00 0.01 0.01 67 1017.5
20260502010540 48 335 2.0 6.0 0.00 0.01 0.01 65 1017.3
20260502005519 49 338 2.0 7.0 0.00 0.01 0.01 63 1017.0
20260502004519 49 354 3.0 6.0 0.00 0.01 0.01 61 1016.7
20260502003519 50 358 2.0 4.0 0.00 0.01 0.01 60 1016.6
20260502002559 50 351 4.0 10.0 0.00 0.01 0.01 58 1016.4
20260502001539 50 345 2.0 4.0 0.00 0.01 0.01 57 1016.1
20260502000519 51 22 2.0 8.0 0.00 0.01 0.01 54 1016.0
20260501235620 52 360 4.0 10.0 0.00 0.01 0.01 53 1016.1
20260501234519 52 7 4.0 8.0 0.00 0.01 0.01 54 1016.1
20260501233540 53 360 3.0 6.0 0.00 0.01 0.01 55 1016.3
20260501232519 53 347 2.0 4.0 0.00 0.01 0.01 54 1016.3
20260501231520 54 300 3.0 5.0 0.00 0.01 0.01 52 1016.2
20260501230539 54 358 2.0 5.0 0.00 0.01 0.01 52 1016.2
20260501225519 55 351 3.0 5.0 0.00 0.01 0.01 51 1016.3
20260501224520 54 2 4.0 8.0 0.00 0.01 0.01 53 1016.2
20260501223520 54 317 2.0 5.0 0.00 0.01 0.01 52 1016.2
20260501222520 56 1 3.0 7.0 0.00 0.01 0.01 50 1016.0
20260501221520 58 349 3.0 7.0 0.00 0.01 0.01 47 1016.2
20260501220539 57 359 4.0 8.0 0.00 0.01 0.01 49 1016.2
20260501215520 56 5 5.0 8.0 0.00 0.01 0.01 50 1016.3
20260501214520 57 278 5.0 13.0 0.00 0.01 0.01 52 1016.4
20260501213520 57 355 5.0 9.0 0.00 0.01 0.01 50 1016.3
20260501212520 57 7 4.0 10.0 0.00 0.01 0.01 51 1016.4
20260501211520 55 343 5.0 9.0 0.00 0.01 0.01 52 1016.3
20260501210520 57 16 6.0 12.0 0.00 0.01 0.01 52 1016.4
20260501205520 55 349 5.0 11.0 0.00 0.01 0.01 54 1016.3
20260501204520 55 336 5.0 9.0 0.00 0.01 0.01 53 1016.3
20260501203520 55 2 4.0 9.0 0.00 0.01 0.01 53 1016.1
20260501202520 55 354 6.0 10.0 0.00 0.01 0.01 54 1016.4
20260501201520 56 346 6.0 13.0 0.00 0.01 0.01 52 1016.5
20260501200520 55 342 6.0 13.0 0.00 0.01 0.01 56 1016.6
20260501195519 54 343 5.0 8.0 0.00 0.01 0.01 56 1016.6